This demonstration page uses our WeatherBlox Daily Observations layout. Learn more.

Left ArrowRight Arrow

Hourly Observations for July 11, 2016

Temp ( °F °C ) Dew Point ( °F °C ) Humidity (%) Winds ( mph kmh ) Pressure ( in mb ) Visibility ( mi km ) Precip ( " mm )
12:15 am 00:15 Clear 81 27.1 68 19.8 64 64 SSE 17 28 29.59 1002 10 16 N/A
12:35 am 00:35 Clear 81 27.1 68 20 65 65 SSE 20 31 29.59 1002 10 16 N/A
12:55 am 00:55 Clear 81 27.2 67 19.6 63 63 S 25 41 29.56 1001 10 16 N/A
1:15 am 01:15 Clear 81 27 67 19.6 64 64 S 22 35 29.56 1001 10 16 N/A
1:35 am 01:35 Clear 80 26.6 67 19.5 65 65 S 22 35 29.56 1001 10 16 N/A
1:55 am 01:55 Clear 80 26.6 67 19.3 64 64 S 22 35 29.56 1001 10 16 N/A
2:15 am 02:15 Clear 80 26.6 67 19.2 64 64 S 22 35 29.56 1001 10 16 N/A
2:35 am 02:35 Clear 79 26.2 67 19.2 65 65 S 21 33 29.56 1001 10 16 N/A
2:55 am 02:55 Clear 78 25.7 67 19.2 67 67 S 20 31 29.56 1001 10 16 N/A
3:15 am 03:15 Clear 78 25.3 66 19 68 68 S 20 31 29.53 1000 10 16 N/A
3:35 am 03:35 Clear 77 25 66 19 69 69 S 18 30 29.53 1000 10 16 N/A
3:55 am 03:55 Clear 77 24.8 66 18.8 69 69 SSE 20 31 29.53 1000 10 16 N/A
4:15 am 04:15 Clear 76 24.5 65 18.6 70 70 S 20 31 29.53 1000 10 16 N/A
4:35 am 04:35 Clear 76 24.5 65 18.5 69 69 S 20 31 29.50 999 10 16 N/A
4:55 am 04:55 Clear 76 24.5 65 18.4 69 69 S 21 33 29.50 999 10 16 N/A
5:15 am 05:15 Clear 76 24.5 66 18.7 70 70 S 17 28 29.50 999 10 16 N/A
5:35 am 05:35 Clear 76 24.5 66 19 72 72 S 17 28 29.50 999 10 16 N/A
5:55 am 05:55 Clear 76 24.5 67 19.3 73 73 S 17 28 29.50 999 10 16 N/A
6:15 am 06:15 Clear 76 24.2 67 19.5 75 75 S 16 26 29.50 999 10 16 N/A
6:35 am 06:35 Sunny 76 24.3 67 19.6 75 75 S 13 20 29.53 1000 10 16 N/A
6:55 am 06:55 Sunny 76 24.5 67 19.6 74 74 S 17 28 29.50 999 10 16 N/A
7:15 am 07:15 Sunny with Thunderstorms 76 24.2 68 19.8 77 77 S 17 28 29.50 999 10 16 N/A
7:35 am 07:35 Sunny 75 24 68 20 78 78 S 14 22 29.50 999 10 16 N/A
7:55 am 07:55 Sunny 76 24.4 68 20 77 77 S 15 24 29.50 999 10 16 N/A
8:15 am 08:15 Sunny 77 25.1 68 19.9 73 73 S 15 24 29.50 999 10 16 N/A
8:35 am 08:35 Sunny 78 25.6 68 19.9 71 71 S 15 24 29.50 999 10 16 N/A
8:55 am 08:55 Sunny 80 26.4 68 19.9 68 68 S 20 31 29.53 1000 10 16 N/A
9:15 am 09:15 Sunny 81 27.1 67 19.7 64 64 S 21 33 29.47 998 10 16 N/A
9:35 am 09:35 Sunny 82 27.5 67 19.5 62 62 SSW 23 37 29.47 998 10 16 N/A
9:55 am 09:55 Sunny 83 28.1 67 19.5 60 60 SSW 26 43 29.50 999 10 16 N/A
10:15 am 10:15 Sunny 82 28 66 19.1 58 58 SSW 24 39 29.50 999 10 16 N/A
10:35 am 10:35 Sunny 83 28.6 67 19.3 57 57 SSW 22 35 29.50 999 10 16 N/A
10:55 am 10:55 Sunny 85 29.4 67 19.5 55 55 SSW 21 33 29.47 998 10 16 N/A
11:15 am 11:15 Sunny 86 30 66 19 52 52 SSW 17 28 29.50 999 10 16 N/A
11:35 am 11:35 Sunny 86 30.1 66 18.8 51 51 SSW 21 33 29.50 999 10 16 N/A
11:55 am 11:55 Sunny 87 30.8 66 19.1 50 50 SSW 15 24 29.50 999 10 16 N/A
12:15 pm 12:15 Sunny 88 31.2 66 19.1 49 49 SW 16 26 29.47 998 10 16 N/A
12:35 pm 12:35 Sunny 88 31.2 66 18.8 48 48 SW 12 19 29.47 998 10 16 N/A
12:55 pm 12:55 Sunny 88 31.3 66 19 48 48 SW 13 20 29.47 998 10 16 N/A
1:15 pm 13:15 Sunny 89 31.5 67 19.4 49 49 WSW 10 17 29.47 998 10 16 N/A
1:35 pm 13:35 Sunny 88 31.2 66 18.7 47 47 WSW 13 20 29.47 998 10 16 N/A
1:55 pm 13:55 Sunny 89 31.6 65 18.5 46 46 SW 9 15 29.47 998 10 16 N/A
2:15 pm 14:15 Sunny 89 31.4 66 18.9 47 47 WNW 8 13 29.47 998 10 16 N/A
2:35 pm 14:35 Sunny 89 31.4 67 19.7 50 50 NW 7 11 29.47 998 10 16 N/A
2:55 pm 14:55 Sunny 89 31.4 67 19.5 49 49 WNW 3 6 29.47 998 10 16 N/A
3:15 pm 15:15 Sunny 88 30.9 67 19.6 51 51 N 6 9 29.53 1000 10 16 N/A
3:35 pm 15:35 Sunny 88 31.1 70 21.2 56 56 N 9 15 29.53 1000 10 16 N/A
3:55 pm 15:55 Sunny 88 31.2 70 20.9 54 54 NW 9 15 29.53 1000 10 16 N/A
4:15 pm 16:15 Sunny 88 30.9 71 21.4 57 57 N 9 15 29.53 1000 10 16 N/A
4:35 pm 16:35 Sunny 89 31.4 70 21.3 55 55 N 8 13 29.50 999 10 16 N/A
4:55 pm 16:55 Sunny 87 30.6 71 21.7 59 59 N 6 9 29.53 1000 10 16 N/A
5:15 pm 17:15 Sunny 88 31 70 21 55 55 NNW 8 13 29.53 1000 10 16 N/A
5:35 pm 17:35 Sunny 88 30.9 70 21.2 56 56 NNW 8 13 29.53 1000 10 16 N/A
5:55 pm 17:55 Sunny 87 30.5 68 20.2 54 54 NNW 8 13 29.53 1000 10 16 N/A
6:15 pm 18:15 Sunny 86 30.1 67 19.6 53 53 NNW 12 19 29.56 1001 10 16 N/A
6:35 pm 18:35 Sunny 86 30 67 19.5 53 53 NNW 10 17 29.56 1001 10 16 N/A
6:55 pm 18:55 Sunny 85 29.6 67 19.2 54 54 NNW 8 13 29.56 1001 10 16 N/A
7:15 pm 19:15 Sunny 85 29.5 67 19.3 54 54 NNW 7 11 29.56 1001 10 16 N/A
7:35 pm 19:35 Sunny 84 29 65 18.5 53 53 NNW 6 9 29.59 1002 10 16 N/A
7:55 pm 19:55 Sunny 83 28.4 66 18.8 56 56 NNW 7 11 29.59 1002 10 16 N/A
8:15 pm 20:15 Sunny 82 27.7 65 18.6 58 58 NNW 6 9 29.62 1003 10 16 N/A
8:35 pm 20:35 Sunny 80 26.8 65 18.5 60 60 NNW 7 11 29.62 1003 10 16 N/A
8:55 pm 20:55 Sunny 78 25.4 65 18.4 65 65 NNW 7 11 29.62 1003 10 16 N/A
9:15 pm 21:15 Clear 76 24.5 65 18.1 68 68 NNW 6 9 29.68 1005 10 16 N/A
9:35 pm 21:35 Clear 74 23.4 65 18.1 72 72 NW 6 9 29.68 1005 10 16 N/A
9:55 pm 21:55 Clear 72 22 65 18.2 79 79 NW 6 9 29.68 1005 10 16 N/A
10:15 pm 22:15 Clear 74 23.1 62 16.8 68 68 NNW 6 9 29.68 1005 10 16 N/A
10:35 pm 22:35 Clear 72 22.1 64 17.9 77 77 NNW 5 7 29.68 1005 10 16 N/A
10:55 pm 22:55 Clear 71 21.5 64 18 81 81 NW 5 7 29.68 1005 10 16 N/A
11:15 pm 23:15 Clear 70 21.2 64 17.8 81 81 NW 5 7 29.68 1005 10 16 N/A
11:35 pm 23:35 Clear 69 20.3 64 17.5 84 84 WNW 5 7 29.71 1006 10 16 N/A
11:55 pm 23:55 Clear 69 20.3 64 17.5 84 84 WNW 7 11 29.74 1007 10 16 N/A

Powered by AerisWeather